Flag for Germany Weather past 2 weeks in Ansbach, Bavaria, Germany

Now
48 °F

Passing clouds.


Feels Like: 44 °F
Forecast: 43 / 58 °F
Wind: 9 mph from Northwest

Location: Ansbach / Katterbach

Current Time: Sep 22, 2014 at 5:01:50 AM

Latest Report: Sep 22, 2014 at 3:58 AM


Visibility: N/A

Pressure: 30.08 "Hg

Humidity: 100%

Dew point: 48 °F

Location of AnsbachLocation

Historic Weather in Ansbach — Graph

°F

Ansbach temperature yesterday

Maximum temperature yesterday: 61 °F (at 1:58 PM)
Minimum temperature yesterday: 54 °F (at 11:58 PM)
Average temperature yesterday: 57 °F

Past Weeks' High & Low Weather Summary

 TemperatureHumidityPressure
High74 °F (Sep 8, 4:58 PM)100% (Sep 8, 7:58 AM)30.19 "Hg (Sep 8, 7:58 AM)
Low46 °F (Sep 17, 6:01 AM)54% (Sep 9, 12:58 PM)29.91 "Hg (Sep 18, 1:58 PM)
Average59 °F89%30.03 "Hg
* Reported Sep 7 3:58 AM — Sep 22 3:58 AM, Ansbach, Weather by CustomWeather, © 2014

Note: Actual official high and low records may vary slightly from our data, if they occured in-between our weather recording intervals... More about our weather records

Advertising

Ansbach weather history for previous 24 hours

 ConditionsComfort  
Time TempWeatherWind HumidityBarometerVisibility
3:58 AM
Sep 22
48 °FPassing clouds.9 mph100%30.08 "HgN/A
2:58 AM50 °FClear.10 mph98%30.08 "HgN/A
1:58 AM50 °FClear.10 mph96%30.08 "HgN/A
12:58 AM52 °FClear.7 mph97%30.07 "HgN/A
11:58 PM
Sep 21
54 °FOvercast.6 mph100%30.06 "HgN/A
10:58 PM54 °FMostly cloudy.7 mph99%30.04 "HgN/A
9:58 PM54 °FOvercast.6 mph100%30.03 "HgN/A
8:58 PM54 °FPassing clouds.8 mph98%30.03 "HgN/A
8:01 PM55 °FRain. Scattered clouds.10 mph94%29.98 "HgN/A
7:58 PM55 °FLight rain. Partly sunny.9 mph94%30.00 "HgN/A
6:58 PM55 °FHeavy rain. Fog.10 mph100%29.98 "Hg6 mi
5:58 PM60 °FLight rain. Broken clouds.7 mph92%29.96 "HgN/A
4:58 PM61 °FBroken clouds.5 mph94%29.96 "HgN/A
3:58 PM60 °FBroken clouds.9 mph98%29.96 "HgN/A
2:58 PM60 °FLight rain. Partly sunny.8 mph99%29.97 "HgN/A
1:58 PM61 °FBroken clouds.7 mph97%29.98 "HgN/A
12:59 PM61 °FLight rain. Mostly cloudy.9 mph100%29.97 "HgN/A
11:59 AM59 °FDrizzle. Mostly cloudy.5 mph100%29.98 "HgN/A
11:58 AM59 °FMostly cloudy.5 mph100%29.99 "HgN/A
10:58 AM59 °FLight rain. Fog.6 mph99%30.00 "Hg5 mi
9:58 AM59 °FDrizzle. Low clouds.6 mph100%30.00 "HgN/A
9:01 AM57 °FCloudy.3 mph100%29.98 "HgN/A
8:58 AM57 °FMore clouds than sun.3 mph100%29.99 "HgN/A
8:02 AM57 °FOvercast.3 mph100%29.98 "HgN/A
7:58 AM57 °FDrizzle. Overcast.3 mph100%29.98 "HgN/A
6:58 AM57 °FLight rain. Passing clouds.3 mph100%29.98 "HgN/A
5:58 AM56 °FLight rain. Passing clouds.3 mph100%29.98 "HgN/A
Weather by CustomWeather, © 2014

See weather overviewHow to use our weather pages